FREGAT DEB, 45963

Orbit data source: Space-Track

FREGAT DEB, 45963 is space debris in LEO originally from a launch on Mon, 18 Jul 2011 UTC launched from the Tyuratam Missile And Space Complex (TTMTR). Debris objects in space refer to the collection of defunct objects orbiting the Earth. Examples of debris include non-operational satellites, rocket bodies, and fragments generated from explosions, collisions, or faulty payload assembly.

Loading next visibility...
Identifier
45963, 2011-037FU
Orbit
LEO
Country
Flag of CISCIS
Related business
Manufacturer
Lavochkin
Mission
Spacecraft
Bus & Motor
Unknown
Mass
Unknown
Launch date (UTC)
2011-07-18 (15 years ago)
Launch vehicle
Unknown
Launch site
Tyuratam Missile And Space Complex (TTMTR)
Object type
Payload
Rocket body
Debris
Shape & HBR
Unknown shape, 0.1 m
Radar Cross Section
Small (<0.1 m²)

Expand to show TLE details & history
Last TLE update: 2 months ago

TLE from 2 months ago
0 FREGAT DEB
1 45963U 11037FU  25351.48481526 -.00023976  00000-0 -12671+0 0  9998
2 45963  51.3301 263.8184 1822661 253.8084  85.5345 10.30089290200802
Epoch: 2025-12-17T11:38Z
TLE epoch observation values (Epoch: 2025-12-17T11:38:08.038Z)
Latitude
-0.00001°
Longitude
2.93089°
Altitude
2,712.596 km
Speed
6.561 km/s
True Right ascension
17h 35m 16s
True Declination
0° 00' 00"
Sunlit
Object was in daylight at epoch
Visualization orbit readout
Latitude
Unknown
Longitude
Unknown
Altitude
Unknown
Speed
Unknown
Apparent Right ascension
Unknown
Apparent Declination
Unknown
Sunlit
N/A
Visualization observer readout
Local Sidereal Time
23:46:02
Azimuth
Unknown
Elevation
Unknown
Doppler factor
Unknown
Orbital elements
Apogee altitude
4,171.133 km
Perigee altitude
918.44 km
Semi-major axis
8,922.923 km
Eccentricity
0.18227
Inclination
51.3301°
RAAN
263.8184°
Arg. of periapsis
253.8084°
True anomaly
106.27032°
Mean anomaly
85.5345°
Eccentric anomaly
95.92185°
Mean motion
2.57503 °/min
Orbital period
139.8 mins
BSTAR
-0.12671
Loading maneuver chart data...
Computing Atmospheric mass density...
Loading historical data...
Loading historical data...
Loading historical data...
Loading historical data...
Loading historical data...
Loading historical data...
Loading historical data...

Documentation

Showing up to 5 results
|